Hourly Weather Luksor

Today, 15 August, Saturday

Time Temperature Precipitation Wind Pressure Humidity
00:00 +34°C° 0 mm 5 mps 744 mmHg 24%
01:00 +33°C° 0 mm 4 mps 744 mmHg 25%
02:00 +31°C° 0 mm 3 mps 744 mmHg 27%
03:00 +31°C° 0 mm 2 mps 744 mmHg 28%
04:00 +30°C° 0 mm 2 mps 744 mmHg 28%
05:00 +30°C° 0 mm 2 mps 744 mmHg 29%
06:00 +31°C° 0 mm 2 mps 745 mmHg 26%
07:00 +32°C° 0 mm 2 mps 745 mmHg 24%
08:00 +35°C° 0 mm 2 mps 745 mmHg 22%
09:00 +37°C° 0 mm 2 mps 745 mmHg 20%
10:00 +37°C° 0 mm 1 mps 745 mmHg 19%
11:00 +40°C° 0 mm 1 mps 745 mmHg 17%
12:00 +41°C° 0 mm 2 mps 744 mmHg 15%
13:00 +42°C° 0 mm 2 mps 743 mmHg 14%
14:00 +43°C° 0 mm 2 mps 743 mmHg 13%
15:00 +44°C° 0 mm 3 mps 743 mmHg 13%
16:00 +44°C° 0 mm 3 mps 743 mmHg 12%
17:00 +44°C° 0 mm 4 mps 743 mmHg 11%
18:00 +42°C° 0 mm 4 mps 743 mmHg 12%
19:00 +40°C° 0 mm 5 mps 743 mmHg 13%
20:00 +39°C° 0 mm 5 mps 744 mmHg 14%
21:00 +37°C° 0 mm 5 mps 744 mmHg 15%
22:00 +36°C° 0 mm 5 mps 744 mmHg 15%
23:00 +35°C° 0 mm 5 mps 744 mmHg 16%

Tomorrow, 16 August, Sunday

Time Temperature Precipitation Wind Pressure Humidity
00:00 +34°C° 0 mm 4 mps 744 mmHg 18%
01:00 +33°C° 0 mm 3 mps 743 mmHg 19%
02:00 +31°C° 0 mm 3 mps 743 mmHg 21%
03:00 +30°C° 0 mm 2 mps 743 mmHg 23%
04:00 +29°C° 0 mm 2 mps 744 mmHg 25%
05:00 +29°C° 0 mm 1 mps 744 mmHg 27%
06:00 +31°C° 0 mm 1 mps 744 mmHg 25%
07:00 +32°C° 0 mm 1 mps 744 mmHg 23%
08:00 +35°C° 0 mm 2 mps 744 mmHg 21%
09:00 +36°C° 0 mm 1 mps 745 mmHg 18%
10:00 +40°C° 0 mm 1 mps 745 mmHg 16%
11:00 +42°C° 0 mm 1 mps 745 mmHg 13%
12:00 +42°C° 0 mm 1 mps 744 mmHg 12%
13:00 +43°C° 0 mm 1 mps 744 mmHg 11%
14:00 +44°C° 0 mm 1 mps 743 mmHg 10%
15:00 +44°C° 0 mm 1 mps 743 mmHg 10%
16:00 +45°C° 0 mm 2 mps 743 mmHg 10%
17:00 +45°C° 0 mm 2 mps 743 mmHg 10%
18:00 +44°C° 0 mm 3 mps 743 mmHg 11%
19:00 +42°C° 0 mm 3 mps 744 mmHg 12%
20:00 +40°C° 0 mm 4 mps 744 mmHg 14%
21:00 +38°C° 0 mm 4 mps 744 mmHg 15%
22:00 +37°C° 0 mm 4 mps 744 mmHg 16%
23:00 +36°C° 0 mm 4 mps 744 mmHg 17%

Day after tomorrow, 17 August, Monday

Time Temperature Precipitation Wind Pressure Humidity
00:00 +35°C° 0 mm 3 mps 744 mmHg 18%
01:00 +34°C° 0 mm 2 mps 744 mmHg 20%
02:00 +32°C° 0 mm 1 mps 744 mmHg 22%
03:00 +31°C° 0 mm 1 mps 744 mmHg 22%
04:00 +31°C° 0 mm 1 mps 744 mmHg 23%
05:00 +30°C° 0 mm 1 mps 744 mmHg 23%
06:00 +32°C° 0 mm 2 mps 745 mmHg 21%
07:00 +35°C° 0 mm 2 mps 745 mmHg 19%
08:00 +37°C° 0 mm 2 mps 746 mmHg 17%
09:00 +39°C° 0 mm 2 mps 745 mmHg 15%
10:00 +41°C° 0 mm 1 mps 745 mmHg 13%
11:00 +43°C° 0 mm 1 mps 745 mmHg 11%
12:00 +44°C° 0 mm 1 mps 744 mmHg 11%
13:00 +46°C° 0 mm 2 mps 744 mmHg 10%
14:00 +47°C° 0 mm 2 mps 743 mmHg 9%
15:00 +47°C° 0 mm 2 mps 743 mmHg 9%
16:00 +47°C° 0 mm 3 mps 743 mmHg 9%
17:00 +47°C° 0 mm 3 mps 743 mmHg 9%
18:00 +45°C° 0 mm 4 mps 744 mmHg 11%
19:00 +43°C° 0 mm 4 mps 744 mmHg 13%
20:00 +41°C° 0 mm 5 mps 745 mmHg 14%
21:00 +38°C° 0 mm 4 mps 745 mmHg 16%
22:00 +37°C° 0 mm 3 mps 745 mmHg 17%
23:00 +36°C° 0 mm 2 mps 745 mmHg 18%

18 August, Tuesday

Time Temperature Precipitation Wind Pressure Humidity
00:00 +35°C° 0 mm 2 mps 745 mmHg 19%
01:00 +34°C° 0 mm 2 mps 745 mmHg 20%
02:00 +32°C° 0 mm 2 mps 745 mmHg 21%
03:00 +32°C° 0 mm 2 mps 745 mmHg 21%
04:00 +32°C° 0 mm 2 mps 745 mmHg 22%
05:00 +31°C° 0 mm 2 mps 745 mmHg 22%
06:00 +34°C° 0 mm 2 mps 745 mmHg 20%
07:00 +36°C° 0 mm 2 mps 745 mmHg 18%
08:00 +37°C° 0 mm 3 mps 746 mmHg 17%
09:00 +39°C° 0 mm 3 mps 746 mmHg 15%
10:00 +42°C° 0 mm 3 mps 745 mmHg 14%
11:00 +44°C° 0 mm 4 mps 745 mmHg 12%
12:00 +45°C° 0 mm 4 mps 745 mmHg 11%
13:00 +47°C° 0 mm 4 mps 744 mmHg 10%
14:00 +48°C° 0 mm 4 mps 743 mmHg 10%
15:00 +48°C° 0 mm 5 mps 743 mmHg 10%
16:00 +47°C° 0 mm 7 mps 743 mmHg 11%
17:00 +48°C° 0 mm 8 mps 743 mmHg 11%
18:00 +45°C° 0 mm 8 mps 743 mmHg 12%
19:00 +43°C° 0 mm 7 mps 744 mmHg 14%
20:00 +40°C° 0 mm 7 mps 744 mmHg 15%
21:00 +39°C° 0 mm 6 mps 744 mmHg 16%
22:00 +37°C° 0 mm 4 mps 745 mmHg 17%
23:00 +35°C° 0 mm 3 mps 745 mmHg 18%

19 August, Wednesday

Time Temperature Precipitation Wind Pressure Humidity
00:00 +34°C° 0 mm 3 mps 744 mmHg 20%
01:00 +34°C° 0 mm 2 mps 744 mmHg 21%
02:00 +32°C° 0 mm 2 mps 744 mmHg 22%
03:00 +31°C° 0 mm 2 mps 744 mmHg 23%
04:00 +31°C° 0 mm 2 mps 744 mmHg 25%
05:00 +30°C° 0 mm 2 mps 744 mmHg 26%
06:00 +33°C° 0 mm 3 mps 745 mmHg 26%
07:00 +34°C° 0 mm 3 mps 745 mmHg 27%
08:00 +36°C° 0 mm 3 mps 745 mmHg 27%
09:00 +38°C° 0 mm 4 mps 745 mmHg 23%
10:00 +41°C° 0 mm 4 mps 745 mmHg 19%
11:00 +43°C° 0 mm 5 mps 745 mmHg 15%
12:00 +45°C° 0 mm 6 mps 745 mmHg 14%
13:00 +46°C° 0 mm 6 mps 744 mmHg 13%
14:00 +47°C° 0 mm 7 mps 743 mmHg 11%
15:00 +46°C° 0 mm 7 mps 743 mmHg 11%
16:00 +46°C° 0 mm 6 mps 743 mmHg 11%
17:00 +45°C° 0 mm 6 mps 743 mmHg 12%
18:00 +42°C° 0 mm 6 mps 743 mmHg 13%
19:00 +40°C° 0 mm 5 mps 744 mmHg 14%
20:00 +37°C° 0 mm 5 mps 744 mmHg 16%
21:00 +36°C° 0 mm 5 mps 744 mmHg 17%
22:00 +35°C° 0 mm 4 mps 744 mmHg 18%
23:00 +34°C° 0 mm 4 mps 745 mmHg 19%

20 August, Thursday

Time Temperature Precipitation Wind Pressure Humidity
00:00 +34°C° 0 mm 4 mps 744 mmHg 20%
01:00 +33°C° 0 mm 3 mps 744 mmHg 21%
02:00 +31°C° 0 mm 3 mps 744 mmHg 22%
03:00 +30°C° 0 mm 3 mps 744 mmHg 23%
04:00 +30°C° 0 mm 3 mps 744 mmHg 25%
05:00 +29°C° 0 mm 3 mps 744 mmHg 26%
06:00 +31°C° 0 mm 3 mps 745 mmHg 24%
07:00 +34°C° 0 mm 3 mps 745 mmHg 22%
08:00 +35°C° 0 mm 3 mps 745 mmHg 21%
09:00 +37°C° 0 mm 3 mps 745 mmHg 18%
10:00 +40°C° 0 mm 4 mps 745 mmHg 16%
11:00 +42°C° 0 mm 5 mps 745 mmHg 14%
12:00 +44°C° 0 mm 6 mps 744 mmHg 13%
13:00 +45°C° 0 mm 6 mps 744 mmHg 11%
14:00 +46°C° 0 mm 6 mps 743 mmHg 10%
15:00 +46°C° 0 mm 6 mps 743 mmHg 10%
16:00 +46°C° 0 mm 6 mps 743 mmHg 11%
17:00 +45°C° 0 mm 6 mps 743 mmHg 11%
18:00 +42°C° 0 mm 6 mps 743 mmHg 13%
19:00 +40°C° 0 mm 5 mps 744 mmHg 14%
20:00 +37°C° 0 mm 4 mps 744 mmHg 16%
21:00 +36°C° 0 mm 4 mps 744 mmHg 18%
22:00 +35°C° 0 mm 4 mps 745 mmHg 19%
23:00 +34°C° 0 mm 4 mps 745 mmHg 21%
Show more